Location: Newark
(45.5000°N, 11.4167°E)
Time: 09:15:57
(UTC+00:00)

Vanguard 2 - Pass Details

Date: 29 August 2019
Orbit: 554 x 2937 km, 32.9° (Epoch: 17 September)

Event Time Altitude Azimuth Distance (km) Brightness Sun altitude
Rises 13:34:25 0° 255° (WSW) 3,411 11.5 43.1°
Reaches altitude 10° 13:36:58 10° 242° (WSW) 2,720 11.4 42.8°
Maximum altitude 13:42:21 26° 187° (S) 2,288 10.9 42.1°
Drops below altitude 10° 13:50:10 10° 137° (SE) 4,072 11.3 40.9°
Sets 13:55:02 0° 127° (SE) 5,517 11.7 40.2°
